Orbital Elements at Epoch 2459200.5 (2020-Dec-17.0) TDB
Reference: JPL 33 (heliocentric ecliptic J2000)
Element | Value | Uncertainty (1-sigma) | Units |
e | .05314131358485923 | 3.7705e-08 | |
a | 2.974646771045647 | 1.6255e-08 | au |
q | 2.816570134181322 | 1.1801e-07 | au |
i | 10.5507454985837 | 4.4654e-06 | deg |
node | 30.2091688991054 | 1.7782e-05 | deg |
peri | 98.16148600168324 | 4.7981e-05 | deg |
M | 283.4484582169391 | 4.3713e-05 | deg |
tp | 2459598.976736015613 (2022-Jan-19.47673602) | 0.00022807 | TDB |
period | 1873.922087319254 5.13 | 1.536e-05 4.205e-08 | d yr |
n | .1921104417500086 | 1.5747e-09 | deg/d |
Q | 3.132723407909973 | 1.7119e-08 | au |
|
| | Orbit Determination Parameters
Additional Information
|